Location: Powder Track
(41.8531°N, 72.3584°W)
Time: 00:23:22
(UTC+00:00)

Vanguard 1 Rocket - Pass Details

Date: 14 August 2021
Orbit: 650 x 4226 km, 34.3° (Epoch: 19 September)

Event Time Altitude Azimuth Distance (km) Brightness Sun altitude
Rises 15:07:37 0° 272° (W) 8,451 12.1 54.0°
Reaches altitude 10° 15:13:52 10° 270° (W) 7,271 11.8 54.8°
Maximum altitude 15:36:35 62° 198° (SSW) 3,163 11.5 57.6°
Drops below altitude 10° 15:49:02 10° 121° (ESE) 4,273 11.4 58.9°
Sets 15:51:40 0° 118° (ESE) 4,922 11.5 59.2°
